Location: Central Falls
(41.8900°N, 71.3929°W)
Time: 15:59:37
(UTC+00:00)

Vanguard 1 Rocket - Pass Details

Date: 04 December 2023
Orbit: 654 x 4218 km, 34.3° (Epoch: 24 February)

Event Time Altitude Azimuth Distance (km) Brightness Sun altitude
Rises 15:30:49 0° 277° (W) 5,544 11.2 24.1°
Reaches altitude 10° 15:35:55 10° 266° (W) 3,890 10.6 24.4°
Maximum altitude 15:42:46 23° 217° (SW) 2,182 10.1 24.7°
Drops below altitude 10° 15:47:22 10° 165° (SSE) 2,515 11.6 24.9°
Sets 15:49:53 0° 150° (SSE) 3,222 11.4 25.0°
